DW8548 Weather Reports


Display with metric or nautical units.
time (UTC)temp
F
wind
direction
speed
MPH
gust
MPH
rain 1hr
in
rain 24hr
in
rain mn
in
humidity
%
barometer
mb
20260901014609 60 131 2.0 8.0 0.00 0.00 0.00 59 1024.8
20260901013104 59 0 1.0 6.0 0.00 0.00 0.00 63 1024.9
20260901011603 59 76 1.0 6.0 0.00 0.00 0.00 67 1024.9
20260901010115 59 0 1.0 4.0 0.00 0.00 0.00 70 1024.9
20260901004606 58 0 1.0 5.0 0.00 0.00 0.00 73 1024.8
20260901003110 55 0 0.0 3.0 0.00 0.00 0.00 80 1024.5
20260901001604 53 0 0.0 4.0 0.00 0.00 0.00 84 1024.6
20260901000113 52 0 1.0 4.0 0.00 0.00 0.00 88 1024.5
20260831234601 50 103 0.0 2.0 0.00 0.00 0.00 90 1024.3
20260831233125 49 0 0.0 1.0 0.00 0.00 0.00 91 1024.4
20260831231608 48 0 0.0 0.0 0.00 0.00 0.00 91 1024.3
20260831230115 47 0 0.0 0.0 0.00 0.00 0.00 91 1024.0
20260831224601 45 0 0.0 0.0 0.00 0.00 0.00 91 1023.8
20260831223112 46 0 0.0 0.0 0.00 0.00 0.00 91 1023.5
20260831221601 46 0 0.0 0.0 0.00 0.00 0.00 90 1023.4
20260831220059 46 0 0.0 0.0 0.00 0.00 0.00 90 1023.5
20260831214611 46 0 0.0 0.0 0.00 0.00 0.00 90 1023.3
20260831213110 46 0 0.0 0.0 0.00 0.00 0.00 89 1023.2
20260831211607 47 0 0.0 0.0 0.00 0.00 0.00 90 1023.1
20260831210100 47 0 0.0 0.0 0.00 0.00 0.00 89 1023.1
20260831204609 48 0 0.0 0.0 0.00 0.00 0.00 89 1022.9
20260831203116 49 0 0.0 0.0 0.00 0.00 0.00 88 1022.6
20260831201607 48 0 0.0 0.0 0.00 0.00 0.00 87 1022.6
20260831200110 49 0 0.0 0.0 0.00 0.00 0.00 87 1022.4
20260831194642 50 0 0.0 0.0 0.00 0.00 0.00 87 1022.4
20260831193106 49 0 0.0 0.0 0.00 0.00 0.00 86 1022.3
20260831191607 50 0 0.0 0.0 0.00 0.00 0.00 85 1022.3
20260831190109 51 0 0.0 0.0 0.00 0.00 0.00 84 1022.3
20260831184607 51 0 0.0 0.0 0.00 0.00 0.00 82 1022.4
20260831183110 52 0 0.0 1.0 0.00 0.00 0.00 81 1022.4
20260831181610 53 0 0.0 1.0 0.00 0.00 0.00 80 1022.5
20260831180126 53 0 0.0 2.0 0.00 0.00 0.00 79 1022.6
20260831174603 54 0 0.0 3.0 0.00 0.00 0.00 79 1022.6
20260831173104 53 0 0.0 3.0 0.00 0.00 0.00 79 1022.6
20260831171605 54 0 0.0 1.0 0.00 0.00 0.00 79 1022.7
20260831164604 54 171 0.0 4.0 0.00 0.00 0.00 79 1022.8
20260831163103 54 0 1.0 4.0 0.00 0.00 0.00 79 1022.8
20260831161606 54 131 1.0 5.0 0.00 0.00 0.00 79 1022.9
20260831160106 54 0 0.0 7.0 0.00 0.00 0.00 79 1022.9
20260831154634 54 0 1.0 6.0 0.00 0.00 0.00 81 1023.0
20260831153108 53 236 1.0 11.0 0.00 0.00 0.00 84 1023.1
20260831151622 53 127 1.0 10.0 0.00 0.00 0.00 86 1023.1
20260831150109 54 209 3.0 9.0 0.00 0.00 0.00 88 1023.0
20260831144607 54 125 2.0 14.0 0.00 0.00 0.00 89 1022.9
20260831143108 56 72 2.0 6.0 0.00 0.00 0.00 89 1022.8
20260831141606 57 0 1.0 7.0 0.00 0.00 0.00 90 1022.4
20260831140106 57 195 1.0 8.0 0.00 0.00 0.00 89 1022.2
20260831134606 57 211 2.0 9.0 0.00 0.00 0.00 89 1022.0
20260831133108 58 0 1.0 7.0 0.00 0.00 0.00 89 1021.9
20260831131614 58 130 2.0 9.0 0.00 0.00 0.00 89 1021.5
20260831130114 59 264 2.0 9.0 0.00 0.00 0.00 89 1021.2
20260831124609 59 187 1.0 9.0 0.00 0.00 0.00 89 1021.0
20260831123104 60 0 0.0 4.0 0.00 0.00 0.00 89 1020.7
20260831121604 61 0 1.0 4.0 0.00 0.00 0.00 88 1020.6
20260831120114 62 236 1.0 7.0 0.00 0.00 0.00 86 1020.5
20260831114611 63 240 3.0 11.0 0.00 0.00 0.00 80 1020.3
20260831113104 64 250 1.0 8.0 0.00 0.00 0.00 78 1020.1
20260831111600 64 294 2.0 7.0 0.00 0.00 0.00 77 1020.0
20260831110111 64 279 1.0 7.0 0.00 0.00 0.00 78 1019.9
20260831104613 64 272 2.0 5.0 0.00 0.00 0.00 77 1019.9
20260831103104 64 248 0.0 8.0 0.00 0.00 0.00 77 1019.8
20260831101604 64 259 2.0 8.0 0.00 0.00 0.00 76 1019.7
20260831100124 64 247 2.0 8.0 0.00 0.00 0.00 77 1019.6
20260831094602 64 256 2.0 4.0 0.00 0.00 0.00 78 1019.5
20260831093108 65 273 2.0 8.0 0.00 0.00 0.00 77 1019.3
20260831091604 65 318 1.0 5.0 0.00 0.00 0.00 77 1019.0
20260831090107 66 227 2.0 9.0 0.00 0.00 0.00 74 1018.9
20260831084611 66 255 2.0 7.0 0.00 0.00 0.00 71 1018.8
20260831083106 67 331 2.0 6.0 0.00 0.00 0.00 67 1018.7
20260831081602 68 271 1.0 9.0 0.00 0.00 0.00 66 1018.6
20260831080108 69 244 4.0 10.0 0.00 0.00 0.00 64 1018.8
20260831074605 68 304 2.0 8.0 0.00 0.00 0.00 67 1018.8
20260831073104 68 282 3.0 9.0 0.00 0.00 0.00 69 1018.8
20260831071558 69 266 4.0 11.0 0.00 0.00 0.00 68 1018.9
20260831070115 70 257 3.0 8.0 0.00 0.00 0.00 64 1018.7
20260831064607 70 252 3.0 11.0 0.00 0.00 0.00 66 1018.7
20260831063105 70 246 2.0 9.0 0.00 0.00 0.00 66 1018.6
20260831061604 70 292 3.0 10.0 0.00 0.00 0.00 66 1018.5
20260831060109 71 225 3.0 8.0 0.00 0.00 0.00 67 1018.4
20260831054606 72 291 2.0 6.0 0.00 0.00 0.00 66 1018.3
20260831053112 71 298 3.0 9.0 0.00 0.00 0.00 65 1018.2
20260831051604 70 250 3.0 9.0 0.00 0.00 0.00 68 1018.4
20260831050115 69 261 3.0 11.0 0.00 0.00 0.00 69 1018.5
20260831044612 70 308 2.0 9.0 0.00 0.00 0.00 72 1018.5
20260831043102 70 275 2.0 8.0 0.00 0.00 0.00 71 1018.3
20260831041605 71 337 2.0 8.0 0.00 0.00 0.00 70 1018.3
20260831040107 70 0 2.0 8.0 0.00 0.00 0.00 68 1018.4
20260831034608 70 273 1.0 7.0 0.00 0.00 0.00 72 1018.5
20260831033107 70 246 2.0 6.0 0.00 0.00 0.00 72 1018.6
20260831031604 70 312 1.0 8.0 0.00 0.00 0.00 72 1018.9
20260831030108 68 48 1.0 8.0 0.00 0.00 0.00 75 1018.8
20260831024626 68 327 1.0 6.0 0.00 0.00 0.00 74 1018.8
20260831023110 69 297 2.0 8.0 0.00 0.00 0.00 75 1018.9
20260831021605 67 336 2.0 7.0 0.00 0.00 0.00 76 1018.6
20260831020111 67 327 1.0 7.0 0.00 0.00 0.00 77 1018.6